Location: Newark
(34.9500°N, 139.9667°E)
Time: 04:57:19
(UTC+00:00)

Vanguard 2 Rocket - Pass Details

Date: 15 December 2019
Orbit: 554 x 3326 km, 32.9° (Epoch: 25 January)

Event Time Altitude Azimuth Distance (km) Brightness Sun altitude
Rises 13:41:37 0° 277° (W) 4,500 - -73.5°
Reaches altitude 10° 13:46:29 10° 258° (WSW) 2,960 - -74.2°
Maximum altitude 13:50:17 15° 223° (SW) 2,174 - -74.8°
Drops below altitude 10° 13:53:20 10° 187° (S) 2,250 - -75.2°
Sets 13:56:16 0° 163° (SSE) 2,929 - -75.6°
